Weather History for Middlesboro, KY

Change the Weather History Date:

Tuesday, October 9, 2012

  Actual Average (KLOZ) Record (KLOZ)
Temperature  
Mean Temperature 50 °F 59 °F  
Max Temperature 57 °F 72 °F 83 °F (1980)
Min Temperature 42 °F 47 °F 30 °F (1978)
Degree Days  
Heating Degree Days 16 7  
Month to date heating degree days 49  
Since 1 July heating degree days 96  
Cooling Degree Days 0 1  
Month to date cooling degree days 11  
Year to date cooling degree days 1178  
Moisture  
Dew Point 48 °F    
Average Humidity 87    
Maximum Humidity 100    
Minimum Humidity 67    
Precipitation  
Precipitation 0.00 in 0.09 in 0.53 in (1994)
Month to date precipitation 0.86  
Year to date precipitation 36.91  
Sea Level Pressure  
Sea Level Pressure 30.13 in    
Wind  
Wind Speed 0 mph (SSW)    
Max Wind Speed 6 mph    
Max Gust Speed -    
Visibility 10 miles    
Events      
T = Trace of Precipitation, MM = Missing Value Source: NWS Daily Summary

Daily Weather History Graph

Daily Weather History Graph

Search for Another Location

Airport:

Trip Planner

Search our weather history database for the weather conditions in past years. The results will help you decide how hot, cold, wet, or windy it might be!

Date:

Astronomy

Oct. 09, 2012 Rise Set
Actual Time 6:37 AM CDT 6:06 PM CDT
Civil Twilight 6:11 AM CDT 6:32 PM CDT
Nautical Twilight 5:41 AM CDT 7:01 PM CDT
Astronomical Twilight 5:11 AM CDT 7:31 PM CDT
Moon 12:22 AM CDT (10/9) 2:24 PM CDT (10/9)
Length of Visible Light 12h 20m
Length of Day
11h 28m
Last Quarter, 36% of the Moon is Illuminated
Oct 9
Last Quarter
Oct 15
New
Oct 21
First Quarter
Oct 29
Full
Nov 6
Last Quarter

Hourly Weather History & Observations

Time (CDT) Temp. Dew Point Humidity Pressure Visibility Wind Dir Wind Speed Gust Speed Precip Events Conditions
12:15 AM 50.0 °F 48.2 °F 94% 30.16 in 10.0 mi Calm Calm - N/A   Overcast
12:35 AM 48.2 °F 48.2 °F 100% 30.15 in 10.0 mi Calm Calm - N/A   Overcast
12:55 AM 48.2 °F 48.2 °F 100% 30.16 in 10.0 mi Calm Calm - N/A   Overcast
1:15 AM 48.2 °F 48.2 °F 100% 30.16 in 10.0 mi Calm Calm - N/A   Overcast
1:55 AM 48.2 °F 48.2 °F 100% 30.16 in 10.0 mi Calm Calm - N/A   Overcast
2:15 AM 48.2 °F 48.2 °F 100% 30.16 in 10.0 mi Calm Calm - N/A   Overcast
2:55 AM 48.2 °F 48.2 °F 100% 30.15 in 10.0 mi Calm Calm - N/A   Overcast
3:15 AM 48.2 °F 48.2 °F 100% 30.15 in 10.0 mi Calm Calm - N/A   Overcast
3:35 AM 48.2 °F 48.2 °F 100% 30.15 in 10.0 mi Calm Calm - N/A   Overcast
3:55 AM 48.2 °F 48.2 °F 100% 30.15 in 10.0 mi Calm Calm - N/A   Overcast
4:15 AM 48.2 °F 46.4 °F 93% 30.15 in 10.0 mi Calm Calm - N/A   Overcast
4:35 AM 48.2 °F 46.4 °F 93% 30.15 in 10.0 mi Calm Calm - N/A   Overcast
4:55 AM 48.2 °F 46.4 °F 93% 30.15 in 10.0 mi Calm Calm - N/A   Overcast
5:15 AM 48.2 °F 48.2 °F 100% 30.16 in 10.0 mi Calm Calm - N/A   Overcast
5:35 AM 48.2 °F 48.2 °F 100% 30.16 in 10.0 mi Calm Calm - N/A   Overcast
5:55 AM 48.2 °F 48.2 °F 100% 30.17 in 10.0 mi Calm Calm - N/A   Overcast
6:15 AM 48.2 °F 46.4 °F 93% 30.17 in 10.0 mi Calm Calm - N/A   Overcast
6:35 AM 48.2 °F 46.4 °F 93% 30.17 in 10.0 mi Calm Calm - N/A   Overcast
6:55 AM 48.2 °F 46.4 °F 93% 30.18 in 10.0 mi Calm Calm - N/A   Overcast
7:15 AM 48.2 °F 48.2 °F 100% 30.18 in 10.0 mi Calm Calm - N/A   Overcast
7:35 AM 48.2 °F 48.2 °F 100% 30.18 in 10.0 mi Calm Calm - N/A   Overcast
7:55 AM 50.0 °F 48.2 °F 94% 30.19 in 10.0 mi Calm Calm - N/A   Overcast
8:15 AM 50.0 °F 48.2 °F 94% 30.19 in 10.0 mi Calm Calm - N/A   Overcast
8:35 AM 51.8 °F 50.0 °F 94% 30.19 in 10.0 mi Calm Calm - N/A   Overcast
8:55 AM 51.8 °F 50.0 °F 94% 30.18 in 10.0 mi Calm Calm - N/A   Overcast
9:15 AM 51.8 °F 50.0 °F 94% 30.18 in 10.0 mi Calm Calm - N/A   Overcast
9:35 AM 53.6 °F 50.0 °F 88% 30.17 in 10.0 mi Calm Calm - N/A   Overcast
9:55 AM 53.6 °F 48.2 °F 82% 30.17 in 10.0 mi Calm Calm - N/A   Overcast
10:15 AM 53.6 °F 48.2 °F 82% 30.17 in 10.0 mi Calm Calm - N/A   Overcast
10:35 AM 55.4 °F 48.2 °F 77% 30.17 in 10.0 mi Calm Calm - N/A   Overcast
10:55 AM 55.4 °F 48.2 °F 77% 30.16 in 10.0 mi Calm Calm - N/A   Overcast
11:15 AM 57.2 °F 48.2 °F 72% 30.16 in 10.0 mi Calm Calm - N/A   Overcast
11:35 AM 55.4 °F 48.2 °F 77% 30.15 in 10.0 mi Calm Calm - N/A   Overcast
11:55 AM 57.2 °F 48.2 °F 72% 30.15 in 10.0 mi SW 5.8 mph - N/A   Overcast
12:15 PM 57.2 °F 46.4 °F 67% 30.14 in 10.0 mi Calm Calm - N/A   Overcast
12:35 PM 57.2 °F 46.4 °F 67% 30.14 in 10.0 mi South 4.6 mph - N/A   Overcast
12:55 PM 57.2 °F 46.4 °F 67% 30.13 in 10.0 mi Calm Calm - N/A   Overcast
1:15 PM 57.2 °F 46.4 °F 67% 30.12 in 10.0 mi Calm Calm - N/A   Overcast
1:35 PM 57.2 °F 46.4 °F 67% 30.11 in 10.0 mi SW 3.5 mph - N/A   Overcast
1:55 PM 57.2 °F 48.2 °F 72% 30.11 in 10.0 mi Calm Calm - N/A   Overcast
2:15 PM 57.2 °F 48.2 °F 72% 30.11 in 10.0 mi West 3.5 mph - N/A   Overcast
2:35 PM 57.2 °F 48.2 °F 72% 30.11 in 10.0 mi SW 3.5 mph - N/A   Overcast
2:55 PM 57.2 °F 48.2 °F 72% 30.10 in 10.0 mi Calm Calm - N/A   Overcast
3:15 PM 57.2 °F 48.2 °F 72% 30.09 in 10.0 mi SSW 5.8 mph - N/A   Overcast
3:35 PM 57.2 °F 48.2 °F 72% 30.09 in 10.0 mi Calm Calm - N/A   Overcast
3:55 PM 57.2 °F 48.2 °F 72% 30.09 in 10.0 mi South 4.6 mph - N/A   Overcast
4:15 PM 57.2 °F 48.2 °F 72% 30.08 in 10.0 mi Calm Calm - N/A   Overcast
4:35 PM 57.2 °F 48.2 °F 72% 30.08 in 10.0 mi South 4.6 mph - N/A   Overcast
4:55 PM 57.2 °F 46.4 °F 67% 30.08 in 10.0 mi South 4.6 mph - N/A   Overcast
5:15 PM 57.2 °F 48.2 °F 72% 30.08 in 10.0 mi South 3.5 mph - N/A   Overcast
5:35 PM 57.2 °F 48.2 °F 72% 30.07 in 10.0 mi Calm Calm - N/A   Overcast
5:55 PM 57.2 °F 48.2 °F 72% 30.07 in 10.0 mi Calm Calm - N/A   Overcast
6:15 PM 55.4 °F 50.0 °F 82% 30.07 in 10.0 mi Calm Calm - N/A   Overcast
6:35 PM 55.4 °F 48.2 °F 77% 30.07 in 10.0 mi Calm Calm - N/A   Overcast
6:55 PM 55.4 °F 50.0 °F 82% 30.07 in 10.0 mi Calm Calm - N/A   Overcast
7:15 PM 53.6 °F 50.0 °F 88% 30.07 in 10.0 mi Calm Calm - N/A   Overcast
7:35 PM 53.6 °F 50.0 °F 88% 30.07 in 10.0 mi Calm Calm - N/A   Overcast
7:55 PM 51.8 °F 50.0 °F 94% 30.07 in 10.0 mi Calm Calm - N/A   Scattered Clouds
8:15 PM 50.0 °F 48.2 °F 94% 30.08 in 10.0 mi Calm Calm - N/A   Clear
8:35 PM 48.2 °F 48.2 °F 100% 30.09 in 10.0 mi Calm Calm - N/A   Clear
8:55 PM 48.2 °F 48.2 °F 100% 30.08 in 10.0 mi Calm Calm - N/A   Clear
9:15 PM 46.4 °F 46.4 °F 100% 30.08 in 10.0 mi Calm Calm - N/A   Clear
9:35 PM 46.4 °F 46.4 °F 100% 30.09 in 10.0 mi Calm Calm - N/A   Clear
9:55 PM 46.4 °F 44.6 °F 93% 30.09 in 7.0 mi Calm Calm - N/A   Clear
10:15 PM 44.6 °F 44.6 °F 100% 30.09 in 7.0 mi Calm Calm - N/A   Clear
10:35 PM 44.6 °F 44.6 °F 100% 30.09 in 5.0 mi Calm Calm - N/A   Clear
10:55 PM 44.6 °F 42.8 °F 93% 30.08 in 7.0 mi Calm Calm - N/A   Scattered Clouds
11:15 PM 44.6 °F 42.8 °F 93% 30.08 in 7.0 mi Calm Calm - N/A   Scattered Clouds
11:35 PM 42.8 °F 42.8 °F 100% 30.07 in 7.0 mi Calm Calm - N/A   Clear
11:55 PM 42.8 °F 42.8 °F 100% 30.07 in 7.0 mi Calm Calm - N/A   Mostly Cloudy